Regional Weather Roundup
Issued by NWS

Home | Current Version | Previous Version | Graphics & Text | Print | Product List | Glossary On
Versions: 1 2 3 4 5 6 7 8 9 10 11 12 13 14 15 16 17 18 19 20 21 22 23 24 25 26 27 28 29 30 31 32 33 34 35 36 37 38 39 40 41 42 43 44 45 46 47 48 49 50
595
ASUS43 KFSD 252210
RWRSD

WEATHER ROUNDUP FOR SOUTH DAKOTA
NATIONAL WEATHER SERVICE SIOUX FALLS SD
500 PM CDT SUN SEP 25 2016

NOTE: "FAIR" INDICATES FEW OR NO CLOUDS BELOW 12,000 FEET WITH NO
SIGNIFICANT WEATHER AND/OR OBSTRUCTIONS TO VISIBILITY.


SDZ001>005-009-010-012>017-252300-
NORTHWEST AND NORTH CENTRAL SOUTH DAKOTA

CITY           SKY/WX    TMP DP  RH WIND       PRES   REMARKS
BUFFALO          N/A     64  35  34 NW25G32   30.21R
FAITH            N/A     65  30  27 NW31G43   30.22S
MOBRIDGE       SUNNY     66  30  26 NW25G39   30.11F
$$

SDZ012>016-024>037-041>051-057-063-072>074-252300-
SOUTHWEST AND SOUTH CENTRAL SOUTH DAKOTA

CITY           SKY/WX    TMP DP  RH WIND       PRES   REMARKS
RAPID CTY ARPT SUNNY     65  30  27 NW24G30   30.29F
PIERRE         SUNNY     67  28  23 NW26G38   30.16S
CUSTER         SUNNY     56  26  31 NW13      30.36R
ELLSWORTH AFB  SUNNY     64  31  29 N21G29    30.29R
PHILIP         SUNNY     68  27  21 N24G32    30.23S
PINE RIDGE     SUNNY     66  23  19 N14G21    30.30S
WINNER         FAIR      69  27  20 NW23G35   30.20R
$$

SDZ004>011-016>023-039-040-252300-
NORTHEAST SOUTH DAKOTA

CITY           SKY/WX    TMP DP  RH WIND       PRES   REMARKS
ABERDEEN       SUNNY     66  34  30 NW28G37   30.06R
WATERTOWN      MOSUNNY   60  39  45 NW24G33   30.03R
BROOKINGS      MOSUNNY   63  41  44 NW23G35   30.04R
SISSETON         N/A     65  37  35 NW24G41   29.96S
$$

SDZ017-020-022-023-036>040-048>070-252300-
SOUTHEAST SOUTH DAKOTA

CITY           SKY/WX    TMP DP  RH WIND       PRES   REMARKS
SIOUX FALLS    MOSUNNY   65  42  43 NW18G31   30.07R
HURON          MOSUNNY   66  36  32 NW28G38   30.08S
CHAMBERLAIN    MOSUNNY   68  34  28 NW18G31   30.17S
MITCHELL       SUNNY     68  32  26 NW18G36   30.12R
YANKTON        SUNNY    N/A N/A N/A NW18G33   30.09R
$$

ABBREVIATIONS USED IN REMARKS
   TC - TEMPERATURE IN CELSIUS
  WCI - WIND CHILL INDEX
   HX - HEAT INDEX
  VSB - VISIBILITY





USA.gov is the U.S. government's official web portal to all federal, state and local government web resources and services.